カタログに戻る

STARLINK-36373

運用中通信SSO
NORAD 68039·PAYLOAD·🇺🇸 United States

打ち上げ Mar 1, 2026 から Vandenberg Space Force Base

Loading…

次のパス (今後24時間)

TLE

最新Source: CelesTrak SupGP

元期: Sep 15, 2026, 03:03 UTC

1 68039C 26040AA  26258.12756944  .00036799  00000+0  11442-2 0  2584
2 68039  97.2854 205.5619 0002157  93.9039 350.2563 15.33366751    14

AllMySatでSTARLINK-36373をリアルタイム追跡

Download on the App Store